Weather Service Report


962 
ASUS42 KCAE 270410
RWRCAE
REGIONAL WEATHER ROUNDUP
NATIONAL WEATHER SERVICE COLUMBIA SC
1200 AM EDT SAT AUG 27 2016

NOTE: "FAIR" INDICATES FEW OR NO CLOUDS BELOW 12,000 FEET WITH NO
SIGNIFICANT WEATHER AND/OR OBSTRUCTIONS TO VISIBILITY.

NOT ALL STATIONS ARE QUALITY CONTROLLED BY THE NATIONAL 
WEATHER SERVICE. USE DATA WITH CAUTION...ESPECIALLY 
DEWPOINT OBSERVATIONS.

SCZ001>056-GAZ040-063>065-077-270500-
...UPSTATE SOUTH CAROLINA...
  
CITY           SKY/WX    TMP DP  RH WIND       PRES   REMARKS
ANDERSON       MOCLDY    79  74  84 CALM      30.12S                  
LIBERTY        CLOUDY    72  72  98 CALM      30.13S FOG              
SPARTANBURG    CLEAR     77  70  78 CALM      30.12S                  
CLEMSON        CLOUDY    77  71  82 NE3       30.14F                  
GREENVILLE     MOCLDY    82  71  69 N7        30.14R                  
GREENWOOD      CLEAR     74  71  91 CALM      30.13R                  
GREER          CLEAR     79  71  76 CALM      30.12S                  
ROCK HILL      CLEAR     76  71  85 CALM      30.12S                  
CHESTER        CLEAR     77  70  78 CALM      30.12S                  
LAURENS        PTCLDY    73  72  94 CALM      30.11S                  


...CENTRAL SOUTH CAROLINA...
  
CITY           SKY/WX    TMP DP  RH WIND       PRES   REMARKS
COLUMBIA APT   CLEAR     83  71  67 S3        30.09R                  
COLUMBIA OWENS CLEAR     82  73  74 CALM      30.10R                  
MCENTIRE ANGB  CLEAR     76  72  86 CALM      30.10R                  
ORANGEBURG     CLEAR     78  72  81 CALM      30.10R                  
SUMTER SHAW    CLEAR     79  71  76 S3        30.07S                  
NEWBERRY       CLEAR     73  72  94 CALM      30.14R                  
AIKEN          FAIR      77  70  78 S5        30.14R                  
MANNING        FAIR      73  70  88 CALM      30.10R                  
LANCASTER      PTCLDY    75  75 100 CALM      30.11S                  
WINNSBORO      CLEAR     79  72  78 CALM      30.10F                  


...EASTERN AND COASTAL SOUTH CAROLINA...
  
CITY           SKY/WX    TMP DP  RH WIND       PRES   REMARKS
MYRTLE BEACH   CLEAR     81  66  61 SE8       30.10F                  
N MYRTLE BCH   CLEAR     81  72  74 SE3       30.07F                  
CONWAY         FAIR      72  70  94 CALM      30.09S                  
MARION         FAIR      73  72  94 CALM      30.10R                  
HARTSVILLE     FAIR      77  72  83 CALM      30.10S                  
FLORENCE       CLEAR     79  72  79 S3        30.10R                  
DARLINGTON     CLEAR     77  73  87 CALM      30.10S                  
CHARLESTON APT PTCLDY    79  71  76 SE5       30.08S                  
MOUNT PLEASANT FAIR      75  73  94 CALM      30.08S                  
WALTERBORO     CLEAR     77  77 100 CALM      30.10R                  
BEAUFORT       CLEAR     77  72  84 CALM      30.08S                  


...EASTERN GEORGIA...
  
CITY           SKY/WX    TMP DP  RH WIND       PRES   REMARKS
AUGUSTA BUSH F CLEAR     75  73  93 SE3       30.08R                  
AUGUSTA DANIEL CLEAR     83  71  67 S6        30.11R                  
THOMSON        PTCLDY    80  76  87 MISG      30.14R                  
WASHINGTON     FAIR      81  77  89 CALM      30.11R                  
CLAXTON        FAIR      73  72  98 CALM      30.08F                  
STATESBORO     CLEAR     77  73  88 CALM      30.08F                  
SAVANNAH       CLEAR     75  69  81 E3        30.08S                  


...SOUTHERN NORTH CAROLINA...
  
CITY           SKY/WX    TMP DP  RH WIND       PRES   REMARKS
CHARLOTTE      PTCLDY    81  71  71 S5        30.12S                  
MONROE         PTCLDY    78  71  79 CALM      30.11R                  
ROCKINGHAM     CLEAR     80  74  80 S3        30.10S                  
RUTHERFORDTON    N/A     77  72  83 N5        30.15F                  
ASHEVILLE      CLEAR     72  66  81 CALM      30.22S                  

$$
  

Return to Home page


Western Regional Climate Center, wrcc@dri.edu